Regional Weather Roundup
Issued by NWS

Home | Current Version | Previous Version | Graphics & Text | Print | Product List | Glossary On
Versions: 1 2 3 4 5 6 7 8 9 10 11 12 13 14 15 16 17 18 19 20 21 22 23 24 25 26 27 28 29 30 31 32 33 34 35 36 37 38 39 40 41 42 43 44 45 46 47 48 49 50
000
ASUS45 KBOI 211410
RWRID
WEATHER ROUNDUP FOR IDAHO
NATIONAL WEATHER SERVICE BOISE ID
700 AM MST SUN DEC 21 2014

NOTE: "FAIR" INDICATES FEW OR NO CLOUDS BELOW 12000 FEET
WITH NO SIGNIFICANT WEATHER AND/OR OBSTRUCTIONS TO VISIBILITY

IDZ012-014-211500-
SOUTHWEST IDAHO


CITY           SKY/WX    TMP DP  RH WIND       PRES   REMARKS
BOISE          CLOUDY    43  40  89 SE6       29.84R
CALDWELL       CLOUDY    43  36  75 N7        29.84R
MOUNTAIN HOME  LGT RAIN  41  40  96 E2        29.85R
$$

IDZ016-017-211500-
SOUTHCENTRAL IDAHO


CITY           SKY/WX    TMP DP  RH WIND       PRES   REMARKS
BURLEY         LGT RAIN  44  40  85 W17       29.82F
JEROME         LGT RAIN  43  40  89 SW22G29   29.84F
TWIN FALLS     CLOUDY    47  40  76 SW17      29.84F
$$

IDZ019>023-211500-
SOUTHEAST IDAHO


CITY           SKY/WX    TMP DP  RH WIND       PRES   REMARKS
IDAHO FALLS    LGT RAIN  39  37  92 SW22G30   29.73F WCI  29
POCATELLO      CLOUDY    43  40  89 SW25G35   29.81F
REXBURG        CLOUDY    36  36 100 SW21G31   29.70F WCI  25
$$

IDZ006-010-011-018-031-032-211500-
CENTRAL IDAHO MOUNTAINS


CITY           SKY/WX    TMP DP  RH WIND       PRES   REMARKS
MCCALL         RAIN      34  32  92 N12G17    29.75R WCI  25
HAILEY         LGT SNOW  32  32 100 CALM      29.80F
STANLEY          N/A     39  31  72 VRB6      29.71F WCI  35
SALMON         CLOUDY    36  32  87 NW14      29.61S WCI  27
CHALLIS        LGT RAIN  35  33  92 CALM      29.66R
$$

IDZ002-004-006-007-026-211500-
NORTHERN IDAHO


CITY           SKY/WX    TMP DP  RH WIND       PRES   REMARKS
LEWISTON       LGT RAIN  54  43  66 W24G38    29.67R
LOWELL           N/A     39  38  96 CALM      29.69R
COEUR D`ALENE  CLOUDY    43  37  81 SW16      29.58R
MULLAN PASS      N/A    N/A N/A N/A MISG      29.50R
$$


USA.gov is the U.S. government's official web portal to all federal, state and local government web resources and services.